sat.trackr.live / text

‹ back to catalog

STARLINK-36138

NORAD 67030 · 2025-294A

PAYLOAD ACTIVE UNKNOWN

§ Identity

Operator
Country
US
Launch date
2025-12-11
Launch site
AFETR
Launch vehicle
Mass (kg)
RCS (m²)

Purposes: comms

External: N2YO · Heavens-Above · Gunter

§ Orbital elements

Epoch: 2026-05-24T20:04:34.273920Z

Period
94.27 min
Inclination
42.9990°
Eccentricity
0.0000893
Mean motion
15.27604329 rev/d
Perigee alt
482.4 km
Apogee alt
483.6 km
Semi-major
6,861.1 km
B*
8.8030e-4
RAAN
328.1499°
Arg perigee
207.7252°
Mean anomaly
152.3552°
Rev number
2,644

§ Raw data

STARLINK-361381 67030U 25294A   26144.83650780  .00024059  00000+0  88030-3 0  99932 67030  42.9990 328.1499 0000893 207.7252 152.3552 15.27604329 26440

JSON: /api/v1/satellites/67030 · /tle

For live sub-satellite position, see the globe view (requires WebGL).

§ Visibility from observer

Set your observer location to see the next 7 days of passes ≥ 10°. The values pass through the URL so the page stays shareable.

No JS? Fill the form by hand. The geolocation button needs JavaScript.